Home > Weather > Provo > Past weeks

Flag for USA Past Weather in Provo, Utah, USA — Yesterday and Last 2 Weeks

Now
86 °F

Passing clouds.


Feels Like: 83 °F
Forecast: 60 / 93 °F
Wind: 6 mph from Southwest

Location: Provo Municipal

Current Time: Jul 24, 2016 at 2:31:43 PM

Latest Report: Jul 24, 2016 at 1:50 PM


Visibility: 10 mi

Pressure: 30.11 "Hg (25.75 "Hg at 1386m altitude)

Humidity: 19%

Dew Point: 39 °F

Location of ProvoLocation

Past Weather in Provo — Graph

°F

Provo Temperature Yesterday

Maximum temperature yesterday: 91 °F (at 3:47 PM)
Minimum temperature yesterday: 59 °F (at 6:15 AM)
Average temperature yesterday: 74 °F

High & Low Weather Summary for the Past Weeks

 TemperatureHumidityPressure
High99 °F (Jul 22, 2:53 PM)77% (Jul 23, 6:15 AM)30.22 "Hg (Jul 23, 6:15 AM)
Low48 °F (Jul 12, 4:15 AM)11% (Jul 12, 3:49 PM)29.78 "Hg (Jul 10, 2:47 PM)
Average72 °F36%30.06 "Hg
* Reported Jul 9 12:47 PM — Jul 24 12:47 PM, Provo, Weather by CustomWeather, © 2016

Note: Actual official high and low records may vary slightly from our data, if they occured in-between our weather recording intervals... More about our weather records

Advertising

Provo Weather History for the Previous 24 Hours

Scroll right to see more
 ConditionsComfort  
Time TempWeatherWind HumidityBarometerVisibility
12:47 PM
Sun, Jul 24
84 °FPassing clouds.7 mph23%30.13 "Hg10 mi
11:47 AM79 °FSunny.7 mph23%30.14 "Hg10 mi
10:47 AM75 °FSunny.5 mph36%30.15 "Hg10 mi
9:47 AM73 °FSunny.No wind33%30.15 "Hg10 mi
8:47 AM68 °FSunny.6 mph33%30.15 "Hg10 mi
7:47 AM63 °FPassing clouds.No wind37%30.13 "Hg10 mi
6:55 AM57 °FClear.7 mph44%30.12 "Hg10 mi
6:35 AM61 °FClear.10 mph36%30.11 "Hg10 mi
6:15 AM61 °FClear.10 mph36%30.10 "Hg10 mi
5:55 AM57 °FClear.10 mph44%30.10 "Hg10 mi
5:35 AM61 °FClear.6 mph45%30.09 "Hg10 mi
5:15 AM59 °FClear.8 mph48%30.09 "Hg10 mi
4:55 AM61 °FClear.10 mph45%30.08 "Hg10 mi
4:35 AM57 °FClear.7 mph59%30.08 "Hg10 mi
4:15 AM64 °FClear.No wind40%30.08 "Hg10 mi
3:55 AM66 °FClear.3 mph43%30.08 "Hg10 mi
3:35 AM64 °FClear.7 mph49%30.08 "Hg10 mi
3:15 AM64 °FClear.6 mph40%30.08 "Hg10 mi
2:55 AM63 °FClear.No wind52%30.08 "Hg10 mi
2:35 AM64 °FClear.No wind43%30.09 "Hg10 mi
2:15 AM64 °FClear.3 mph40%30.07 "Hg10 mi
1:55 AM63 °FClear.5 mph49%30.07 "Hg10 mi
1:35 AM63 °FClear.3 mph49%30.07 "Hg10 mi
1:15 AM66 °FClear.No wind37%30.07 "Hg10 mi
12:55 AM64 °FClear.5 mph40%30.07 "Hg10 mi
12:35 AM66 °FClear.6 mph43%30.06 "Hg10 mi
12:15 AM68 °FClear.3 mph38%30.05 "Hg10 mi
11:55 PM
Sat, Jul 23
66 °FClear.6 mph43%30.05 "Hg10 mi
11:35 PM70 °FClear.7 mph40%30.05 "Hg10 mi
11:15 PM73 °FClear.9 mph33%30.05 "Hg10 mi
10:55 PM73 °FClear.5 mph38%30.05 "Hg10 mi
10:35 PM75 °FClear.7 mph36%30.05 "Hg10 mi
10:15 PM79 °FClear.13 mph28%30.04 "Hg10 mi
9:55 PM79 °FClear.12 mph34%30.04 "Hg10 mi
9:35 PM79 °FSunny.12 mph30%30.03 "Hg10 mi
9:15 PM81 °FSunny.15 mph30%30.02 "Hg10 mi
8:55 PM79 °FSunny.12 mph45%30.02 "Hg10 mi
7:55 PM84 °FSunny.12 mph31%30.01 "Hg10 mi
6:55 PM88 °FSunny.12 mph25%30.02 "Hg10 mi
4:47 PM91 °FSunny.9 mph14%30.05 "Hg10 mi
3:47 PM91 °FSunny.9 mph14%30.07 "Hg10 mi
2:53 PM90 °FSunny.6 mph24%30.10 "Hg10 mi
Weather by CustomWeather, © 2016

See weather overviewHow to use our weather pages